RH
86 79 80 83 89 97 100 98 94 80 82 86 81 78 82 86 95 84 94 93 86 91 93 90 99 99 98 98 97 100 99 93 97 83 79 72 73 58 57 58 51 52 72
99 89 77 77 80 83 97 97 96 80 80 80 84 84 90 96 93 90 90 96 94 94 90 93 99 97 97 98 99 99 100 93 95 86 82 81 80 68 66 66 70 60 46
97 100 98 79 78 80 78 79 78 81 80 78 86 81 84 86 98 98 99 96 96 95 93 95 91 92 85 88 89 92 94 96 99 95 86 89 92 83 72 68 73 74 67
90 96 100 100 99 98 85 78 79 84 81 96 82 81 92 85 93 97 97 97 98 96 94 92 89 88 87 87 86 86 86 88 90 94 95 90 93 94 84 71 75 76 76
84 89 97 100 100 99 99 98 98 96 89 82 97 83 94 91 86 92 94 96 95 94 94 92 89 91 92 92 94 91 90 87 92 94 100 100 96 94 93 78 78 78 80
67 86 89 94 98 100 99 100 100 100 100 90 99 99 98 85 90 96 94 90 92 92 92 92 94 94 94 92 86 95 94 96 100 100 100 100 90 93 75 81 81 84 89
55 54 82 92 95 100 100 99 100 100 99 97 94 99 91 93 86 93 98 98 95 98 99 97 97 97 84 89 95 95 100 100 99 100 100 96 99 87 89 87 92 96 84
77 57 51 80 98 99 99 100 99 99 99 100 100 100 100 84 68 75 83 100 100 100 99 99 96 96 100 98 96 96 95 96 99 100 99 94 97 99 100 99 95 92 86
66 80 68 53 78 100 99 99 100 100 100 100 100 99 92 99 97 97 94 88 90 92 96 98 98 98 98 99 98 100 95 92 98 96 100 98 96 100 88 83 89 92 80
62 63 73 79 58 57 99 100 100 99 99 100 99 99 96 100 100 96 88 99 100 99 99 99 99 99 98 98 100 97 98 96 100 93 97 96 87 88 90 81 82 80 84
62 63 63 67 78 56 43 98 99 99 98 100 98 97 98 90 99 96 92 93 95 100 100 99 92 91 96 98 100 100 98 91 95 94 91 100 93 90 91 85 82 87 91
61 62 64 65 70 80 57 55 96 98 98 97 99 98 98 100 98 100 96 91 92 95 88 84 87 92 96 98 100 99 100 99 99 96 93 91 85 91 88 78 92 100 97
59 59 61 67 71 76 83 67 56 88 98 97 98 100 100 99 99 100 100 100 100 97 95 97 98 87 92 100 100 100 100 100 100 100 98 93 91 92 96 91 93 100 100
60 57 56 59 66 74 79 82 80 85 100 99 98 100 96 100 95 100 97 100 100 99 100 99 99 100 89 92 100 100 99 99 99 99 94 92 88 95 100 99 100 100 100
64 61 60 60 63 68 74 80 84 97 98 99 98 89 92 90 84 88 96 93 94 96 100 98 100 100 100 89 97 100 100 100 100 100 98 91 85 86 88 92 97 100 99
69 68 67 66 62 67 69 66 89 99 100 100 99 98 87 83 78 79 83 96 99 99 100 100 98 99 100 96 89 94 97 94 92 89 88 85 79 78 80 85 87 90 93
74 73 77 73 71 73 73 75 69 65 92 100 100 99 99 97 84 78 74 77 94 100 99 99 99 98 98 98 98 86 83 81 82 79 81 80 81 84 86 87 94 99 100
68 75 79 79 84 77 81 82 84 84 76 63 85 97 100 95 91 82 77 76 88 98 100 100 99 99 96 93 100 98 88 83 86 84 93 98 91 95 92 95 99 100 100
62 70 76 80 81 83 83 84 84 85 88 89 87 86 96 96 92 87 93 99 100 100 100 100 100 100 100 100 100 99 100 95 91 91 95 98 96 97 100 99 94 91 100
69 62 78 81 80 78 82 87 89 86 86 90 92 93 85 89 90 90 90 97 100 100 94 94 98 100 99 100 100 100 100 100 99 100 95 100 98 100 96 100 99 99 99
76 55 64 82 81 81 82 86 92 93 90 88 92 95 100 90 90 92 92 93 96 98 98 100 97 99 99 100 100 100 100 100 100 100 100 100 100 95 100 100 100 99 100
85 63 49 76 84 84 86 89 91 94 95 91 84 86 88 91 88 90 91 90 94 98 98 100 100 100 99 99 98 100 100 100 100 100 100 100 100 100 100 100 100 100 100
90 72 48 56 84 85 87 88 89 93 95 95 92 84 82 84 87 87 89 91 96 99 99 99 100 100 99 99 99 100 100 100 99 100 99 98 100 100 100 100 100 100 100
93 78 65 50 69 84 88 89 90 92 95 98 96 93 89 86 88 87 88 91 95 97 98 98 100 100 100 99 100 100 100 100 100 99 100 100 100 100 100 100 100 100 99
99 91 72 56 59 80 88 90 91 92 93 96 98 99 97 95 93 91 93 91 93 96 98 96 98 100 100 100 100 100 100 100 100 100 99 100 100 100 100 100 99 99 99
100 92 73 68 56 66 86 92 94 96 95 95 98 99 100 97 94 94 93 95 94 95 97 96 97 98 99 99 99 99 99 100 100 100 97 98 98 99 100 100 99 97 82
Wind_Speed
7 9 13 15 16 17 19 21 22 26 29 28 25 23 27 32 36 36 37 36 32 35 34 32 33 32 32 32 32 32 29 28 31 30 26 22 20 18 15 15 12 12 16
5 7 11 17 20 21 22 23 24 27 30 27 25 23 24 27 29 33 36 37 35 35 34 33 33 30 30 30 31 31 32 31 31 34 33 31 27 23 22 22 15 12 10
2 5 9 14 18 21 24 25 27 27 28 29 28 28 26 27 28 27 31 34 35 34 33 33 32 30 28 29 29 29 30 30 31 35 36 33 30 28 27 26 22 18 16
3 4 6 9 11 15 19 21 24 24 26 23 28 27 29 27 27 25 25 27 29 31 31 33 33 33 32 33 33 34 34 34 33 33 34 36 37 34 31 29 26 20 18
5 5 8 8 12 15 13 24 20 24 26 28 26 29 25 27 28 24 26 26 28 29 29 30 32 32 33 34 34 35 35 37 39 38 37 38 35 37 37 31 29 26 23
7 7 9 12 12 13 19 18 19 22 23 26 24 25 24 30 29 31 29 30 31 32 35 35 35 34 34 32 33 35 37 34 34 39 37 40 30 32 29 32 32 25 25
7 8 8 12 14 11 11 14 19 21 23 24 26 27 27 28 27 29 32 33 33 35 36 34 34 32 29 30 31 30 29 36 36 36 27 28 29 33 35 30 27 26 23
8 7 8 10 11 10 11 11 14 18 22 27 26 26 26 26 27 29 30 32 32 35 33 31 30 31 28 30 27 27 29 31 30 31 26 25 19 19 32 27 18 24 23
11 10 8 8 11 13 9 9 8 14 18 24 26 27 29 29 28 28 28 30 30 29 29 29 29 29 30 25 25 25 27 28 26 29 29 21 16 16 16 16 22 25 24
12 12 11 10 8 9 14 10 10 11 11 16 24 27 27 29 26 23 25 26 29 31 30 31 30 28 26 26 27 26 24 25 22 21 24 25 23 22 23 21 21 26 25
14 13 13 12 12 10 10 14 13 14 11 13 19 21 29 32 24 23 23 23 25 29 30 31 31 27 27 25 25 26 28 24 21 20 20 24 24 24 24 24 24 25 26
14 13 12 11 11 13 13 12 12 16 17 16 11 14 21 26 25 24 26 25 22 23 24 23 25 29 27 27 27 26 25 24 24 22 25 26 27 28 24 23 24 23 22
16 14 12 11 11 11 14 15 13 11 13 20 20 13 11 16 22 22 22 22 25 30 27 23 23 23 22 25 28 27 25 25 25 25 26 27 25 25 25 26 27 26 23
18 16 14 13 12 11 10 13 16 13 12 13 19 19 17 10 18 16 19 20 20 25 27 28 25 25 24 23 27 31 34 33 30 31 29 26 24 26 27 26 28 26 25
19 18 16 15 15 13 11 11 15 16 12 13 16 19 19 22 17 17 21 24 23 23 24 26 28 27 30 29 27 29 32 33 34 34 32 28 26 26 27 27 28 28 28
21 19 18 19 16 16 17 12 9 14 17 17 17 17 19 22 19 20 20 20 23 24 26 27 32 34 31 33 32 32 33 33 32 32 32 30 28 27 27 27 26 26 25
21 20 19 18 18 19 18 18 18 9 13 17 15 16 19 21 21 22 25 23 22 23 27 29 33 33 34 37 38 37 36 35 33 33 33 32 31 29 27 27 26 26 28
18 17 18 17 18 19 19 18 18 18 17 15 13 15 15 19 20 22 22 26 24 23 27 30 33 36 35 36 37 40 40 36 35 33 34 34 33 31 30 29 28 29 31
18 17 17 17 17 18 18 17 17 17 17 17 17 16 16 16 19 22 18 18 19 20 21 26 31 32 32 33 36 36 39 41 38 36 35 32 31 30 32 29 26 25 29
16 17 16 17 18 17 17 17 17 15 16 16 16 18 17 16 14 17 18 20 21 20 23 22 23 27 33 34 35 37 38 37 39 38 37 34 31 31 27 31 33 33 29
17 20 17 15 16 17 18 18 18 17 17 16 16 16 16 17 16 16 17 20 23 24 23 22 23 23 23 24 28 35 36 36 39 36 35 33 35 32 32 31 30 29 30
17 20 18 17 17 16 16 17 17 16 16 16 15 15 15 16 15 16 16 18 21 24 24 21 20 20 24 25 26 29 31 36 36 34 33 30 34 35 33 33 33 32 30
17 21 19 16 16 15 14 14 15 15 14 14 15 15 15 15 13 14 15 16 18 20 22 23 23 19 19 22 22 23 24 27 29 27 28 30 32 32 32 32 31 31 30
17 21 21 16 15 15 14 14 14 14 14 13 13 13 13 13 13 10 12 13 16 17 19 20 22 23 22 21 22 23 26 28 25 26 28 30 31 30 29 28 28 28 27
16 20 21 18 15 14 13 13 13 13 14 13 12 11 11 11 10 9 8 9 11 13 15 18 19 22 25 23 24 24 25 26 27 26 23 21 23 25 26 25 25 26 26
18 19 20 18 15 13 12 12 11 11 11 11 11 10 10 9 9 8 6 5 4 5 6 11 15 17 21 23 25 27 25 23 22 21 21 22 21 23 24 25 24 23 23
Wind_Direction
220 227 243 244 240 235 231 235 233 241 244 247 248 248 244 237 235 238 238 240 241 246 243 248 245 249 252 249 249 258 254 250 257 261 257 263 271 265 275 292 300 291 254
248 235 229 245 243 242 238 237 241 243 245 245 244 242 246 240 233 232 239 239 242 244 245 246 244 249 254 257 254 254 254 252 249 256 258 260 263 257 264 275 282 280 266
272 246 235 232 239 242 245 247 245 246 242 242 242 240 236 240 239 241 239 240 242 244 246 247 249 253 257 257 261 263 261 261 256 253 255 256 259 251 256 261 269 274 264
287 279 245 231 233 238 236 239 239 240 242 239 235 243 232 239 240 243 239 237 240 242 245 248 249 251 253 255 257 259 263 265 265 261 255 253 252 253 252 250 259 264 264
297 280 268 262 240 240 254 235 228 235 238 240 243 236 233 231 239 242 243 243 246 247 248 251 252 252 254 254 257 257 257 261 259 259 256 254 250 248 246 244 252 260 256
310 292 271 268 265 247 242 253 228 224 233 240 245 244 237 240 247 253 251 249 252 252 251 250 252 254 255 257 260 259 260 260 263 256 255 253 259 248 242 245 246 257 259
322 315 283 267 261 260 251 239 235 235 229 232 239 240 240 239 242 244 248 248 252 254 253 253 255 254 253 255 250 254 259 255 260 264 255 257 260 251 240 236 250 255 253
308 319 310 275 266 263 259 253 245 242 238 236 236 241 245 248 256 256 253 247 247 251 252 251 256 253 253 251 253 253 251 250 248 251 250 262 263 269 237 243 257 249 258
303 295 306 308 278 272 266 262 278 261 248 240 240 241 246 249 254 257 252 245 243 246 248 247 251 252 250 250 245 247 249 246 251 246 253 241 236 241 242 244 249 245 256
320 305 290 287 301 297 273 272 284 269 268 259 247 243 250 245 252 252 244 234 233 240 243 246 249 249 245 248 247 245 247 247 238 230 228 228 232 232 231 236 245 250 254
336 318 304 285 273 282 275 266 272 282 292 273 254 249 247 252 248 244 238 237 241 241 245 250 247 248 250 247 237 239 238 239 234 237 238 236 235 236 235 239 246 253 246
342 329 315 301 290 268 265 257 259 273 281 288 272 244 254 239 248 245 237 237 243 251 249 252 256 255 250 250 242 241 242 241 229 236 233 232 233 237 240 241 249 252 248
342 339 327 314 302 288 269 263 258 255 278 275 282 289 231 235 232 240 239 244 244 245 253 255 261 260 254 249 244 234 235 237 232 233 235 237 237 240 234 237 246 254 245
345 342 339 326 316 308 286 267 255 252 258 266 267 284 274 252 241 246 247 248 237 241 247 258 253 254 251 250 240 239 242 233 235 239 241 242 237 233 233 237 241 246 250
347 346 343 339 332 320 309 287 262 244 256 269 261 265 269 268 258 251 253 254 249 253 253 255 249 252 249 245 241 236 238 234 233 234 240 240 236 234 232 236 237 239 242
346 347 348 343 338 333 321 297 273 263 254 246 253 262 259 266 270 269 261 252 249 246 252 248 246 251 251 246 240 237 234 232 234 236 238 239 236 235 233 229 233 231 238
342 344 344 341 344 338 334 327 312 249 264 256 250 261 266 268 266 270 274 262 252 245 249 245 249 252 252 248 244 238 238 239 238 237 238 238 236 235 234 229 230 237 233
339 339 338 344 344 342 339 333 329 320 306 260 263 266 257 266 272 272 273 260 257 253 255 252 254 254 252 255 251 243 239 236 235 237 234 234 234 233 227 230 228 218 207
342 337 338 343 343 343 337 337 332 323 316 306 291 274 272 262 274 274 276 273 265 261 260 260 258 258 257 259 248 247 244 239 235 229 228 225 223 228 223 211 204 213 213
340 344 343 340 338 341 338 338 336 331 321 315 306 299 287 285 273 273 270 277 274 262 260 269 272 261 258 259 253 247 238 234 234 226 225 222 222 209 212 215 209 210 203
339 345 341 335 336 339 337 342 337 336 331 322 316 307 304 292 287 282 274 273 276 271 263 271 272 270 251 257 259 246 238 233 225 221 215 218 207 212 211 212 205 201 192
334 339 340 338 338 335 340 339 337 333 328 325 320 314 310 301 287 286 281 280 278 277 273 270 266 264 250 247 256 243 230 220 215 213 213 206 207 203 200 195 191 189 190
330 339 341 336 331 331 331 333 335 334 332 332 331 330 319 307 299 290 287 284 280 275 268 265 259 251 252 235 244 216 223 209 202 193 192 191 190 187 186 186 189 189 188
336 339 339 331 326 327 327 330 334 333 333 337 339 339 332 324 313 306 294 288 283 276 269 258 251 240 230 213 211 210 204 201 199 195 193 189 184 182 183 185 189 192 194
323 328 331 329 323 323 323 324 327 328 329 336 339 340 340 331 332 330 320 306 295 282 267 252 237 226 213 202 208 203 197 193 185 178 178 187 189 186 187 191 197 199 203
306 313 322 322 316 315 316 317 318 321 324 325 331 333 335 336 337 337 338 331 312 289 254 229 210 197 191 186 186 184 179 182 183 186 190 194 194 194 197 199 201 202 201